Zurück zum Katalog

FENGYUN 1C DEB

AktivSSO
NORAD 35247·DEBRIS·🇨🇳 China

Gestartet May 10, 1999 von Taiyuan Satellite Launch Center

Loading…

Nächste Überflüge (nächste 24 Stunden)

TLE

AktuellSource: Space-Track

Epoche: Sep 12, 2026, 11:54 UTC

1 35247U 99025DRF 26255.49626964  .00002077  00000-0  63340-3 0  9997
2 35247  98.6616 344.0380 0047770 315.9179  43.8206 14.42383238 38777

Verfolge FENGYUN 1C DEB in Echtzeit mit AllMySat

Download on the App Store